Year,Month,Day,Hour,Minute,Value (Times are PST for temperature in C)
2015,06,20,00,00,13.60
2015,06,20,00,01,13.50
2015,06,20,00,02,13.50
2015,06,20,00,03,13.50
2015,06,20,00,04,13.50
2015,06,20,00,05,13.50
2015,06,20,00,06,13.50
2015,06,20,00,07,13.50
2015,06,20,00,08,13.50
2015,06,20,00,09,13.50
2015,06,20,00,10,13.50
2015,06,20,00,11,13.40
2015,06,20,00,12,13.40
2015,06,20,00,13,13.40
2015,06,20,00,14,13.40
2015,06,20,00,15,13.30
2015,06,20,00,16,13.30
2015,06,20,00,17,13.30
2015,06,20,00,18,13.30
2015,06,20,00,19,13.30
2015,06,20,00,20,13.30
2015,06,20,00,21,13.30
2015,06,20,00,22,13.30
2015,06,20,00,23,13.30
2015,06,20,00,24,13.30
2015,06,20,00,25,13.30
2015,06,20,00,26,13.30
2015,06,20,00,27,13.30
2015,06,20,00,28,13.30
2015,06,20,00,29,13.30
2015,06,20,00,30,13.30
2015,06,20,00,31,13.30
2015,06,20,00,32,13.30
2015,06,20,00,33,13.30
2015,06,20,00,34,13.30
2015,06,20,00,35,13.30
2015,06,20,00,36,13.30
2015,06,20,00,37,13.30
2015,06,20,00,38,13.30
2015,06,20,00,39,13.30
2015,06,20,00,40,13.30
2015,06,20,00,41,13.20
2015,06,20,00,42,13.20
2015,06,20,00,43,13.20
2015,06,20,00,44,13.20
2015,06,20,00,45,13.20
2015,06,20,00,46,13.20
2015,06,20,00,47,13.20
2015,06,20,00,48,13.20
2015,06,20,00,49,13.10
2015,06,20,00,50,13.10
2015,06,20,00,51,13.10
2015,06,20,00,52,13.10
2015,06,20,00,53,13.10
2015,06,20,00,54,13.10
2015,06,20,00,55,13.00
2015,06,20,00,56,13.00
2015,06,20,00,57,13.00
2015,06,20,00,58,13.00
2015,06,20,00,59,12.90
2015,06,20,01,00,12.90
2015,06,20,01,01,12.90
2015,06,20,01,02,12.90
2015,06,20,01,03,12.90
2015,06,20,01,04,12.90
2015,06,20,01,05,12.90
2015,06,20,01,06,12.90
2015,06,20,01,07,12.90
2015,06,20,01,08,12.90
2015,06,20,01,09,12.90
2015,06,20,01,10,12.90
2015,06,20,01,11,12.90
2015,06,20,01,12,12.80
2015,06,20,01,13,12.80
2015,06,20,01,14,12.80
2015,06,20,01,15,12.80
2015,06,20,01,16,12.80
2015,06,20,01,17,12.80
2015,06,20,01,18,12.80
2015,06,20,01,19,12.80
2015,06,20,01,20,12.80
2015,06,20,01,21,12.80
2015,06,20,01,22,12.80
2015,06,20,01,23,12.80
2015,06,20,01,24,12.80
2015,06,20,01,25,12.80
2015,06,20,01,26,12.80
2015,06,20,01,27,12.80
2015,06,20,01,28,12.80
2015,06,20,01,29,12.70
2015,06,20,01,30,12.70
2015,06,20,01,31,12.70
2015,06,20,01,32,12.70
2015,06,20,01,33,12.70
2015,06,20,01,34,12.70
2015,06,20,01,35,12.60
2015,06,20,01,36,12.60
2015,06,20,01,37,12.60
2015,06,20,01,38,12.60
2015,06,20,01,39,12.60
2015,06,20,01,40,12.60
2015,06,20,01,41,12.50
2015,06,20,01,42,12.50
2015,06,20,01,43,12.50
2015,06,20,01,44,12.50
2015,06,20,01,45,12.50
2015,06,20,01,46,12.50
2015,06,20,01,47,12.50
2015,06,20,01,48,12.50
2015,06,20,01,49,12.40
2015,06,20,01,50,12.40
2015,06,20,01,51,12.40
2015,06,20,01,52,12.40
2015,06,20,01,53,12.40
2015,06,20,01,54,12.40
2015,06,20,01,55,12.40
2015,06,20,01,56,12.30
2015,06,20,01,57,12.30
2015,06,20,01,58,12.30
2015,06,20,01,59,12.30
2015,06,20,02,00,12.30
2015,06,20,02,01,12.30
2015,06,20,02,02,12.30
2015,06,20,02,03,12.30
2015,06,20,02,04,12.30
2015,06,20,02,05,12.30
2015,06,20,02,06,12.30
2015,06,20,02,07,12.30
2015,06,20,02,08,12.30
2015,06,20,02,09,12.30
2015,06,20,02,10,12.20
2015,06,20,02,11,12.20
2015,06,20,02,12,12.20
2015,06,20,02,13,12.20
2015,06,20,02,14,12.20
2015,06,20,02,15,12.10
2015,06,20,02,16,12.10
2015,06,20,02,17,12.10
2015,06,20,02,18,12.00
2015,06,20,02,19,12.00
2015,06,20,02,20,12.00
2015,06,20,02,21,12.00
2015,06,20,02,22,11.90
2015,06,20,02,23,11.90
2015,06,20,02,24,11.90
2015,06,20,02,25,11.80
2015,06,20,02,26,11.80
2015,06,20,02,27,11.80
2015,06,20,02,28,11.80
2015,06,20,02,29,11.80
2015,06,20,02,30,11.80
2015,06,20,02,31,11.70
2015,06,20,02,32,11.70
2015,06,20,02,33,11.70
2015,06,20,02,34,11.70
2015,06,20,02,35,11.60
2015,06,20,02,36,11.60
2015,06,20,02,37,11.60
2015,06,20,02,38,11.60
2015,06,20,02,39,11.60
2015,06,20,02,40,11.60
2015,06,20,02,41,11.60
2015,06,20,02,42,11.60
2015,06,20,02,43,11.60
2015,06,20,02,44,11.70
2015,06,20,02,45,11.70
2015,06,20,02,46,11.70
2015,06,20,02,47,11.70
2015,06,20,02,48,11.70
2015,06,20,02,49,11.80
2015,06,20,02,50,11.80
2015,06,20,02,51,11.80
2015,06,20,02,52,11.80
2015,06,20,02,53,11.80
2015,06,20,02,54,11.80
2015,06,20,02,55,11.80
2015,06,20,02,56,11.80
2015,06,20,02,57,11.80
2015,06,20,02,58,11.80
2015,06,20,02,59,11.80
2015,06,20,03,00,11.80
2015,06,20,03,01,11.80
2015,06,20,03,02,11.80
2015,06,20,03,03,11.80
2015,06,20,03,04,11.80
2015,06,20,03,05,11.70
2015,06,20,03,06,11.70
2015,06,20,03,07,11.70
2015,06,20,03,08,11.70
2015,06,20,03,09,11.60
2015,06,20,03,10,11.60
2015,06,20,03,11,11.60
2015,06,20,03,12,11.50
2015,06,20,03,13,11.40
2015,06,20,03,14,11.40
2015,06,20,03,15,11.40
2015,06,20,03,16,11.40
2015,06,20,03,17,11.30
2015,06,20,03,18,11.30
2015,06,20,03,19,11.20
2015,06,20,03,20,11.20
2015,06,20,03,21,11.20
2015,06,20,03,22,11.10
2015,06,20,03,23,11.10
2015,06,20,03,24,11.10
2015,06,20,03,25,11.10
2015,06,20,03,26,11.10
2015,06,20,03,27,11.10
2015,06,20,03,28,11.00
2015,06,20,03,29,10.90
2015,06,20,03,30,10.90
2015,06,20,03,31,10.90
2015,06,20,03,32,10.90
2015,06,20,03,33,10.90
2015,06,20,03,34,10.90
2015,06,20,03,35,10.90
2015,06,20,03,36,10.90
2015,06,20,03,37,10.90
2015,06,20,03,38,10.90
2015,06,20,03,39,10.90
2015,06,20,03,40,10.80
2015,06,20,03,41,10.80
2015,06,20,03,42,10.80
2015,06,20,03,43,10.80
2015,06,20,03,44,10.80
2015,06,20,03,45,10.80
2015,06,20,03,46,10.80
2015,06,20,03,47,10.80
2015,06,20,03,48,10.80
2015,06,20,03,49,10.80
2015,06,20,03,50,10.70
2015,06,20,03,51,10.70
2015,06,20,03,52,10.70
2015,06,20,03,53,10.70
2015,06,20,03,54,10.70
2015,06,20,03,55,10.70
2015,06,20,03,56,10.60
2015,06,20,03,57,10.60
2015,06,20,03,58,10.60
2015,06,20,03,59,10.60
2015,06,20,04,00,10.60
2015,06,20,04,01,10.60
2015,06,20,04,02,10.60
2015,06,20,04,03,10.60
2015,06,20,04,04,10.60
2015,06,20,04,05,10.60
2015,06,20,04,06,10.40
2015,06,20,04,07,10.40
2015,06,20,04,08,10.40
2015,06,20,04,09,10.40
2015,06,20,04,10,10.40
2015,06,20,04,11,10.40
2015,06,20,04,12,10.40
2015,06,20,04,13,10.40
2015,06,20,04,14,10.40
2015,06,20,04,15,10.40
2015,06,20,04,16,10.40
2015,06,20,04,17,10.40
2015,06,20,04,18,10.40
2015,06,20,04,19,10.40
2015,06,20,04,20,10.40
2015,06,20,04,21,10.40
2015,06,20,04,22,10.40
2015,06,20,04,23,10.40
2015,06,20,04,24,10.40
2015,06,20,04,25,10.40
2015,06,20,04,26,10.40
2015,06,20,04,27,10.40
2015,06,20,04,28,10.40
2015,06,20,04,29,10.40
2015,06,20,04,30,10.40
2015,06,20,04,31,10.40
2015,06,20,04,32,10.40
2015,06,20,04,33,10.40
2015,06,20,04,34,10.40
2015,06,20,04,35,10.40
2015,06,20,04,36,10.40
2015,06,20,04,37,10.40
2015,06,20,04,38,10.40
2015,06,20,04,39,10.40
2015,06,20,04,40,10.40
2015,06,20,04,41,10.40
2015,06,20,04,42,10.40
2015,06,20,04,43,10.40
2015,06,20,04,44,10.40
2015,06,20,04,45,10.40
2015,06,20,04,46,10.40
2015,06,20,04,47,10.40
2015,06,20,04,48,10.40
2015,06,20,04,49,10.40
2015,06,20,04,50,10.30
2015,06,20,04,51,10.30
2015,06,20,04,52,10.30
2015,06,20,04,53,10.30
2015,06,20,04,54,10.30
2015,06,20,04,55,10.30
2015,06,20,04,56,10.30
2015,06,20,04,57,10.30
2015,06,20,04,58,10.30
2015,06,20,04,59,10.30
2015,06,20,05,00,10.30
2015,06,20,05,01,10.30
2015,06,20,05,02,10.30
2015,06,20,05,03,10.20
2015,06,20,05,04,10.20
2015,06,20,05,05,10.20
2015,06,20,05,06,10.20
2015,06,20,05,07,10.20
2015,06,20,05,08,10.10
2015,06,20,05,09,10.10
2015,06,20,05,10,10.10
2015,06,20,05,11,10.10
2015,06,20,05,12,10.10
2015,06,20,05,13,10.10
2015,06,20,05,14,10.10
2015,06,20,05,15,10.00
2015,06,20,05,16,9.90
2015,06,20,05,17,9.90
2015,06,20,05,18,9.90
2015,06,20,05,19,9.90
2015,06,20,05,20,9.90
2015,06,20,05,21,9.90
2015,06,20,05,22,9.90
2015,06,20,05,23,9.90
2015,06,20,05,24,9.90
2015,06,20,05,25,9.90
2015,06,20,05,26,9.90
2015,06,20,05,27,9.90
2015,06,20,05,28,9.90
2015,06,20,05,29,9.90
2015,06,20,05,30,9.90
2015,06,20,05,31,9.90
2015,06,20,05,32,9.90
2015,06,20,05,33,9.90
2015,06,20,05,34,9.90
2015,06,20,05,35,9.90
2015,06,20,05,36,9.90
2015,06,20,05,37,9.90
2015,06,20,05,38,9.90
2015,06,20,05,39,9.90
2015,06,20,05,40,9.90
2015,06,20,05,41,9.90
2015,06,20,05,42,9.90
2015,06,20,05,43,9.90
2015,06,20,05,44,9.90
2015,06,20,05,45,9.90
2015,06,20,05,46,9.90
2015,06,20,05,47,9.90
2015,06,20,05,48,9.90
2015,06,20,05,49,9.90
2015,06,20,05,50,9.90
2015,06,20,05,51,9.90
2015,06,20,05,52,9.90
2015,06,20,05,53,9.90
2015,06,20,05,54,10.00
2015,06,20,05,55,10.10
2015,06,20,05,56,10.10
2015,06,20,05,57,10.10
2015,06,20,05,58,10.10
2015,06,20,05,59,10.10
2015,06,20,06,00,10.10
2015,06,20,06,01,10.10
2015,06,20,06,02,10.10
2015,06,20,06,03,10.20
2015,06,20,06,04,10.20
2015,06,20,06,05,10.20
2015,06,20,06,06,10.30
2015,06,20,06,07,10.30
2015,06,20,06,08,10.30
2015,06,20,06,09,10.30
2015,06,20,06,10,10.40
2015,06,20,06,11,10.40
2015,06,20,06,12,10.40
2015,06,20,06,13,10.40
2015,06,20,06,14,10.50
2015,06,20,06,15,10.60
2015,06,20,06,16,10.60
2015,06,20,06,17,10.60
2015,06,20,06,18,10.70
2015,06,20,06,19,10.90
2015,06,20,06,20,10.90
2015,06,20,06,21,11.10
2015,06,20,06,22,11.20
2015,06,20,06,23,11.30
2015,06,20,06,24,11.40
2015,06,20,06,25,11.50
2015,06,20,06,26,11.60
2015,06,20,06,27,11.70
2015,06,20,06,28,11.80
2015,06,20,06,29,11.80
2015,06,20,06,30,11.90
2015,06,20,06,31,11.90
2015,06,20,06,32,12.00
2015,06,20,06,33,12.10
2015,06,20,06,34,12.20
2015,06,20,06,35,12.20
2015,06,20,06,36,12.30
2015,06,20,06,37,12.40
2015,06,20,06,38,12.50
2015,06,20,06,39,12.50
2015,06,20,06,40,12.60
2015,06,20,06,41,12.70
2015,06,20,06,42,12.70
2015,06,20,06,43,12.80
2015,06,20,06,44,12.80
2015,06,20,06,45,12.80
2015,06,20,06,46,12.90
2015,06,20,06,47,13.00
2015,06,20,06,48,13.00
2015,06,20,06,49,13.00
2015,06,20,06,50,13.00
2015,06,20,06,51,13.10
2015,06,20,06,52,13.10
2015,06,20,06,53,13.10
2015,06,20,06,54,13.10
2015,06,20,06,55,13.10
2015,06,20,06,56,13.10
2015,06,20,06,57,13.20
2015,06,20,06,58,13.30
2015,06,20,06,59,13.30
2015,06,20,07,00,13.40
2015,06,20,07,01,13.50
2015,06,20,07,02,13.60
2015,06,20,07,03,13.60
2015,06,20,07,04,13.70
2015,06,20,07,05,13.80
2015,06,20,07,06,13.90
2015,06,20,07,07,13.90
2015,06,20,07,08,14.00
2015,06,20,07,09,14.10
2015,06,20,07,10,14.10
2015,06,20,07,11,14.20
2015,06,20,07,12,14.20
2015,06,20,07,13,14.20
2015,06,20,07,14,14.20
2015,06,20,07,15,14.20
2015,06,20,07,16,14.30
2015,06,20,07,17,14.30
2015,06,20,07,18,14.40
2015,06,20,07,19,14.50
2015,06,20,07,20,14.60
2015,06,20,07,21,14.70
2015,06,20,07,22,14.80
2015,06,20,07,23,14.80
2015,06,20,07,24,14.90
2015,06,20,07,25,14.90
2015,06,20,07,26,14.90
2015,06,20,07,27,14.90
2015,06,20,07,28,14.90
2015,06,20,07,29,14.80
2015,06,20,07,30,14.80
2015,06,20,07,31,14.80
2015,06,20,07,32,14.80
2015,06,20,07,33,14.80
2015,06,20,07,34,14.80
2015,06,20,07,35,14.80
2015,06,20,07,36,14.80
2015,06,20,07,37,14.80
2015,06,20,07,38,14.80
2015,06,20,07,39,14.80
2015,06,20,07,40,14.90
2015,06,20,07,41,14.90
2015,06,20,07,42,14.90
2015,06,20,07,43,14.90
2015,06,20,07,44,15.00
2015,06,20,07,45,15.00
2015,06,20,07,46,15.10
2015,06,20,07,47,15.20
2015,06,20,07,48,15.30
2015,06,20,07,49,15.30
2015,06,20,07,50,15.40
2015,06,20,07,51,15.50
2015,06,20,07,52,15.50
2015,06,20,07,53,15.60
2015,06,20,07,54,15.60
2015,06,20,07,55,15.70
2015,06,20,07,56,15.70
2015,06,20,07,57,15.70
2015,06,20,07,58,15.80
2015,06,20,07,59,15.80
2015,06,20,08,00,15.80
2015,06,20,08,01,15.80
2015,06,20,08,02,15.80
2015,06,20,08,03,15.80
2015,06,20,08,04,15.80
2015,06,20,08,05,15.80
2015,06,20,08,06,15.80
2015,06,20,08,07,15.80
2015,06,20,08,08,15.80
2015,06,20,08,09,15.90
2015,06,20,08,10,15.90
2015,06,20,08,11,16.00
2015,06,20,08,12,16.10
2015,06,20,08,13,16.20
2015,06,20,08,14,16.20
2015,06,20,08,15,16.20
2015,06,20,08,16,16.20
2015,06,20,08,17,16.20
2015,06,20,08,18,16.20
2015,06,20,08,19,16.20
2015,06,20,08,20,16.20
2015,06,20,08,21,16.30
2015,06,20,08,22,16.30
2015,06,20,08,23,16.40
2015,06,20,08,24,16.50
2015,06,20,08,25,16.60
2015,06,20,08,26,16.70
2015,06,20,08,27,16.80
2015,06,20,08,28,16.90
2015,06,20,08,29,17.00
2015,06,20,08,30,17.10
2015,06,20,08,31,17.20
2015,06,20,08,32,17.30
2015,06,20,08,33,17.20
2015,06,20,08,34,17.20
2015,06,20,08,35,17.20
2015,06,20,08,36,17.20
2015,06,20,08,37,17.20
2015,06,20,08,38,17.30
2015,06,20,08,39,17.30
2015,06,20,08,40,17.40
2015,06,20,08,41,17.40
2015,06,20,08,42,17.40
2015,06,20,08,43,17.50
2015,06,20,08,44,17.50
2015,06,20,08,45,17.60
2015,06,20,08,46,17.70
2015,06,20,08,47,17.70
2015,06,20,08,48,17.70
2015,06,20,08,49,17.80
2015,06,20,08,50,17.80
2015,06,20,08,51,17.70
2015,06,20,08,52,17.60
2015,06,20,08,53,17.60
2015,06,20,08,54,17.60
2015,06,20,08,55,17.60
2015,06,20,08,56,17.60
2015,06,20,08,57,17.70
2015,06,20,08,58,17.70
2015,06,20,08,59,17.70
2015,06,20,09,00,17.70
2015,06,20,09,01,17.70
2015,06,20,09,02,17.70
2015,06,20,09,03,17.50
2015,06,20,09,04,17.40
2015,06,20,09,05,17.40
2015,06,20,09,06,17.30
2015,06,20,09,07,17.30
2015,06,20,09,08,17.30
2015,06,20,09,09,17.40
2015,06,20,09,10,17.40
2015,06,20,09,11,17.40
2015,06,20,09,12,17.40
2015,06,20,09,13,17.40
2015,06,20,09,14,17.50
2015,06,20,09,15,17.50
2015,06,20,09,16,17.40
2015,06,20,09,17,17.30
2015,06,20,09,18,17.10
2015,06,20,09,19,17.00
2015,06,20,09,20,16.80
2015,06,20,09,21,16.70
2015,06,20,09,22,16.70
2015,06,20,09,23,16.70
2015,06,20,09,24,16.60
2015,06,20,09,25,16.60
2015,06,20,09,26,16.60
2015,06,20,09,27,16.70
2015,06,20,09,28,16.80
2015,06,20,09,29,16.90
2015,06,20,09,30,16.90
2015,06,20,09,31,17.00
2015,06,20,09,32,17.10
2015,06,20,09,33,17.20
2015,06,20,09,34,17.30
2015,06,20,09,35,17.30
2015,06,20,09,36,17.30
2015,06,20,09,37,17.30
2015,06,20,09,38,17.40
2015,06,20,09,39,17.50
2015,06,20,09,40,17.50
2015,06,20,09,41,17.50
2015,06,20,09,42,17.60
2015,06,20,09,43,17.60
2015,06,20,09,44,17.60
2015,06,20,09,45,17.70
2015,06,20,09,46,17.80
2015,06,20,09,47,18.00
2015,06,20,09,48,18.10
2015,06,20,09,49,18.20
2015,06,20,09,50,18.10
2015,06,20,09,51,18.00
2015,06,20,09,52,17.90
2015,06,20,09,53,17.90
2015,06,20,09,54,17.90
2015,06,20,09,55,17.80
2015,06,20,09,56,17.90
2015,06,20,09,57,17.90
2015,06,20,09,58,17.90
2015,06,20,09,59,17.80
2015,06,20,10,00,17.80
2015,06,20,10,01,17.80
2015,06,20,10,02,17.80
2015,06,20,10,03,17.90
2015,06,20,10,04,18.00
2015,06,20,10,05,18.10
2015,06,20,10,06,18.10
2015,06,20,10,07,18.10
2015,06,20,10,08,18.00
2015,06,20,10,09,17.90
2015,06,20,10,10,17.90
2015,06,20,10,11,17.90
2015,06,20,10,12,17.80
2015,06,20,10,13,17.80
2015,06,20,10,14,17.80
2015,06,20,10,15,17.70
2015,06,20,10,16,17.70
2015,06,20,10,17,17.80
2015,06,20,10,18,17.90
2015,06,20,10,19,17.90
2015,06,20,10,20,17.90
2015,06,20,10,21,17.90
2015,06,20,10,22,17.80
2015,06,20,10,23,17.80
2015,06,20,10,24,17.80
2015,06,20,10,25,17.80
2015,06,20,10,26,17.80
2015,06,20,10,27,17.80
2015,06,20,10,28,17.90
2015,06,20,10,29,17.90
2015,06,20,10,30,17.90
2015,06,20,10,31,17.90
2015,06,20,10,32,18.10
2015,06,20,10,33,18.20
2015,06,20,10,34,18.20
2015,06,20,10,35,18.30
2015,06,20,10,36,18.30
2015,06,20,10,37,18.40
2015,06,20,10,38,18.50
2015,06,20,10,39,18.50
2015,06,20,10,40,18.50
2015,06,20,10,41,18.50
2015,06,20,10,42,18.60
2015,06,20,10,43,18.70
2015,06,20,10,44,18.70
2015,06,20,10,45,18.60
2015,06,20,10,46,18.40
2015,06,20,10,47,18.30
2015,06,20,10,48,18.10
2015,06,20,10,49,17.90
2015,06,20,10,50,17.80
2015,06,20,10,51,17.70
2015,06,20,10,52,17.70
2015,06,20,10,53,17.70
2015,06,20,10,54,17.80
2015,06,20,10,55,17.80
2015,06,20,10,56,17.80
2015,06,20,10,57,17.70
2015,06,20,10,58,17.70
2015,06,20,10,59,17.70
2015,06,20,11,00,17.80
2015,06,20,11,01,17.90
2015,06,20,11,02,17.90
2015,06,20,11,03,17.80
2015,06,20,11,04,17.80
2015,06,20,11,05,17.80
2015,06,20,11,06,17.90
2015,06,20,11,07,17.80
2015,06,20,11,08,17.90
2015,06,20,11,09,17.90
2015,06,20,11,10,17.80
2015,06,20,11,11,17.60
2015,06,20,11,12,17.50
2015,06,20,11,13,17.50
2015,06,20,11,14,17.60
2015,06,20,11,15,17.70
2015,06,20,11,16,17.80
2015,06,20,11,17,17.80
2015,06,20,11,18,17.70
2015,06,20,11,19,17.70
2015,06,20,11,20,17.60
2015,06,20,11,21,17.60
2015,06,20,11,22,17.60
2015,06,20,11,23,17.50
2015,06,20,11,24,17.50
2015,06,20,11,25,17.50
2015,06,20,11,26,17.70
2015,06,20,11,27,17.80
2015,06,20,11,28,17.90
2015,06,20,11,29,17.90
2015,06,20,11,30,17.80
2015,06,20,11,31,17.80
2015,06,20,11,32,17.80
2015,06,20,11,33,17.90
2015,06,20,11,34,17.90
2015,06,20,11,35,17.90
2015,06,20,11,36,17.90
2015,06,20,11,37,17.80
2015,06,20,11,38,17.80
2015,06,20,11,39,17.90
2015,06,20,11,40,17.90
2015,06,20,11,41,18.10
2015,06,20,11,42,18.20
2015,06,20,11,43,18.40
2015,06,20,11,44,18.40
2015,06,20,11,45,18.40
2015,06,20,11,46,18.50
2015,06,20,11,47,18.60
2015,06,20,11,48,18.60
2015,06,20,11,49,18.50
2015,06,20,11,50,18.50
2015,06,20,11,51,18.40
2015,06,20,11,52,18.40
2015,06,20,11,53,18.20
2015,06,20,11,54,18.20
2015,06,20,11,55,18.10
2015,06,20,11,56,18.10
2015,06,20,11,57,18.10
2015,06,20,11,58,18.10
2015,06,20,11,59,18.00
2015,06,20,12,00,17.80
2015,06,20,12,01,17.80
2015,06,20,12,02,17.80
2015,06,20,12,03,17.80
2015,06,20,12,04,17.80
2015,06,20,12,05,17.90
2015,06,20,12,06,17.80
2015,06,20,12,07,17.90
2015,06,20,12,08,17.90
2015,06,20,12,09,17.90
2015,06,20,12,10,17.90
2015,06,20,12,11,17.80
2015,06,20,12,12,17.70
2015,06,20,12,13,17.70
2015,06,20,12,14,17.70
2015,06,20,12,15,17.80
2015,06,20,12,16,17.90
2015,06,20,12,17,17.90
2015,06,20,12,18,17.90
2015,06,20,12,19,18.00
2015,06,20,12,20,18.10
2015,06,20,12,21,18.20
2015,06,20,12,22,18.20
2015,06,20,12,23,18.10
2015,06,20,12,24,17.90
2015,06,20,12,25,17.80
2015,06,20,12,26,17.70
2015,06,20,12,27,17.60
2015,06,20,12,28,17.60
2015,06,20,12,29,17.70
2015,06,20,12,30,17.70
2015,06,20,12,31,17.70
2015,06,20,12,32,17.80
2015,06,20,12,33,17.90
2015,06,20,12,34,17.90
2015,06,20,12,35,17.80
2015,06,20,12,36,17.90
2015,06,20,12,37,17.90
2015,06,20,12,38,17.90
2015,06,20,12,39,17.90
2015,06,20,12,40,17.90
2015,06,20,12,41,17.90
2015,06,20,12,42,17.90
2015,06,20,12,43,17.90
2015,06,20,12,44,17.90
2015,06,20,12,45,17.90
2015,06,20,12,46,17.90
2015,06,20,12,47,17.90
2015,06,20,12,48,17.90
2015,06,20,12,49,17.80
2015,06,20,12,50,17.90
2015,06,20,12,51,17.90
2015,06,20,12,52,17.90
2015,06,20,12,53,17.90
2015,06,20,12,54,17.90
2015,06,20,12,55,18.00
2015,06,20,12,56,18.10
2015,06,20,12,57,18.20
2015,06,20,12,58,18.20
2015,06,20,12,59,18.20
2015,06,20,13,00,18.10
2015,06,20,13,01,18.20
2015,06,20,13,02,18.20
2015,06,20,13,03,18.20
2015,06,20,13,04,18.10
2015,06,20,13,05,18.00
2015,06,20,13,06,17.90
2015,06,20,13,07,17.90
2015,06,20,13,08,17.90
2015,06,20,13,09,18.00
2015,06,20,13,10,18.10
2015,06,20,13,11,18.10
2015,06,20,13,12,18.10
2015,06,20,13,13,18.20
2015,06,20,13,14,18.10
2015,06,20,13,15,18.10
2015,06,20,13,16,18.20
2015,06,20,13,17,18.20
2015,06,20,13,18,18.20
2015,06,20,13,19,18.30
2015,06,20,13,20,18.20
2015,06,20,13,21,18.20
2015,06,20,13,22,18.20
2015,06,20,13,23,18.20
2015,06,20,13,24,18.20
2015,06,20,13,25,18.20
2015,06,20,13,26,18.30
2015,06,20,13,27,18.50
2015,06,20,13,28,18.60
2015,06,20,13,29,18.60
2015,06,20,13,30,18.40
2015,06,20,13,31,18.40
2015,06,20,13,32,18.30
2015,06,20,13,33,18.20
2015,06,20,13,34,18.10
2015,06,20,13,35,18.10
2015,06,20,13,36,18.20
2015,06,20,13,37,18.20
2015,06,20,13,38,18.10
2015,06,20,13,39,18.00
2015,06,20,13,40,17.90
2015,06,20,13,41,18.00
2015,06,20,13,42,18.10
2015,06,20,13,43,18.20
2015,06,20,13,44,18.10
2015,06,20,13,45,18.10
2015,06,20,13,46,18.10
2015,06,20,13,47,18.00
2015,06,20,13,48,17.90
2015,06,20,13,49,17.90
2015,06,20,13,50,18.10
2015,06,20,13,51,18.20
2015,06,20,13,52,18.40
2015,06,20,13,53,18.40
2015,06,20,13,54,18.20
2015,06,20,13,55,18.10
2015,06,20,13,56,17.90
2015,06,20,13,57,17.90
2015,06,20,13,58,18.10
2015,06,20,13,59,18.30
2015,06,20,14,00,18.40
2015,06,20,14,01,18.30
2015,06,20,14,02,18.10
2015,06,20,14,03,17.80
2015,06,20,14,04,17.80
2015,06,20,14,05,17.90
2015,06,20,14,06,17.80
2015,06,20,14,07,17.60
2015,06,20,14,08,17.50
2015,06,20,14,09,17.40
2015,06,20,14,10,17.30
2015,06,20,14,11,17.40
2015,06,20,14,12,17.40
2015,06,20,14,13,17.40
2015,06,20,14,14,17.30
2015,06,20,14,15,17.20
2015,06,20,14,16,17.20
2015,06,20,14,17,17.20
2015,06,20,14,18,17.30
2015,06,20,14,19,17.30
2015,06,20,14,20,17.30
2015,06,20,14,21,17.30
2015,06,20,14,22,17.30
2015,06,20,14,23,17.30
2015,06,20,14,24,17.50
2015,06,20,14,25,17.50
2015,06,20,14,26,17.50
2015,06,20,14,27,17.60
2015,06,20,14,28,17.60
2015,06,20,14,29,17.80
2015,06,20,14,30,17.90
2015,06,20,14,31,18.00
2015,06,20,14,32,18.10
2015,06,20,14,33,18.10
2015,06,20,14,34,18.10
2015,06,20,14,35,18.10
2015,06,20,14,36,18.10
2015,06,20,14,37,18.20
2015,06,20,14,38,18.20
2015,06,20,14,39,18.20
2015,06,20,14,40,18.20
2015,06,20,14,41,18.30
2015,06,20,14,42,18.50
2015,06,20,14,43,18.60
2015,06,20,14,44,18.70
2015,06,20,14,45,18.70
2015,06,20,14,46,18.70
2015,06,20,14,47,18.60
2015,06,20,14,48,18.60
2015,06,20,14,49,18.50
2015,06,20,14,50,18.70
2015,06,20,14,51,18.70
2015,06,20,14,52,18.70
2015,06,20,14,53,18.60
2015,06,20,14,54,18.60
2015,06,20,14,55,18.50
2015,06,20,14,56,18.50
2015,06,20,14,57,18.40
2015,06,20,14,58,18.40
2015,06,20,14,59,18.50
2015,06,20,15,00,18.60
2015,06,20,15,01,18.80
2015,06,20,15,02,18.80
2015,06,20,15,03,18.80
2015,06,20,15,04,18.60
2015,06,20,15,05,18.50
2015,06,20,15,06,18.40
2015,06,20,15,07,18.20
2015,06,20,15,08,18.20
2015,06,20,15,09,18.20
2015,06,20,15,10,18.30
2015,06,20,15,11,18.30
2015,06,20,15,12,18.30
2015,06,20,15,13,18.50
2015,06,20,15,14,18.60
2015,06,20,15,15,18.60
2015,06,20,15,16,18.60
2015,06,20,15,17,18.60
2015,06,20,15,18,18.50
2015,06,20,15,19,18.60
2015,06,20,15,20,18.80
2015,06,20,15,21,18.70
2015,06,20,15,22,18.70
2015,06,20,15,23,18.70
2015,06,20,15,24,18.70
2015,06,20,15,25,18.60
2015,06,20,15,26,18.60
2015,06,20,15,27,18.70
2015,06,20,15,28,18.70
2015,06,20,15,29,18.60
2015,06,20,15,30,18.60
2015,06,20,15,31,18.50
2015,06,20,15,32,18.50
2015,06,20,15,33,18.50
2015,06,20,15,34,18.60
2015,06,20,15,35,18.60
2015,06,20,15,36,18.60
2015,06,20,15,37,18.50
2015,06,20,15,38,18.50
2015,06,20,15,39,18.40
2015,06,20,15,40,18.40
2015,06,20,15,41,18.50
2015,06,20,15,42,18.60
2015,06,20,15,43,18.70
2015,06,20,15,44,18.70
2015,06,20,15,45,18.80
2015,06,20,15,46,18.80
2015,06,20,15,47,18.90
2015,06,20,15,48,19.10
2015,06,20,15,49,19.20
2015,06,20,15,50,19.20
2015,06,20,15,51,19.10
2015,06,20,15,52,19.10
2015,06,20,15,53,19.20
2015,06,20,15,54,19.10
2015,06,20,15,55,19.10
2015,06,20,15,56,19.10
2015,06,20,15,57,19.10
2015,06,20,15,58,19.00
2015,06,20,15,59,18.90
2015,06,20,16,00,18.80
2015,06,20,16,01,18.80
2015,06,20,16,02,18.80
2015,06,20,16,03,18.80
2015,06,20,16,04,18.80
2015,06,20,16,05,18.80
2015,06,20,16,06,18.80
2015,06,20,16,07,18.60
2015,06,20,16,08,18.50
2015,06,20,16,09,18.60
2015,06,20,16,10,18.70
2015,06,20,16,11,18.70
2015,06,20,16,12,18.60
2015,06,20,16,13,18.50
2015,06,20,16,14,18.50
2015,06,20,16,15,18.50
2015,06,20,16,16,18.50
2015,06,20,16,17,18.40
2015,06,20,16,18,18.30
2015,06,20,16,19,18.30
2015,06,20,16,20,18.20
2015,06,20,16,21,18.00
2015,06,20,16,22,17.90
2015,06,20,16,23,17.70
2015,06,20,16,24,17.50
2015,06,20,16,25,17.30
2015,06,20,16,26,17.10
2015,06,20,16,27,16.90
2015,06,20,16,28,16.60
2015,06,20,16,29,16.30
2015,06,20,16,30,16.20
2015,06,20,16,31,16.10
2015,06,20,16,32,16.10
2015,06,20,16,33,16.10
2015,06,20,16,34,16.10
2015,06,20,16,35,16.10
2015,06,20,16,36,16.00
2015,06,20,16,37,15.80
2015,06,20,16,38,15.70
2015,06,20,16,39,15.50
2015,06,20,16,40,15.30
2015,06,20,16,41,15.30
2015,06,20,16,42,15.30
2015,06,20,16,43,15.30
2015,06,20,16,44,15.30
2015,06,20,16,45,15.30
2015,06,20,16,46,15.30
2015,06,20,16,47,15.30
2015,06,20,16,48,15.30
2015,06,20,16,49,15.40
2015,06,20,16,50,15.50
2015,06,20,16,51,15.50
2015,06,20,16,52,15.30
2015,06,20,16,53,15.30
2015,06,20,16,54,15.30
2015,06,20,16,55,15.30
2015,06,20,16,56,15.30
2015,06,20,16,57,15.40
2015,06,20,16,58,15.40
2015,06,20,16,59,15.40
2015,06,20,17,00,15.40
2015,06,20,17,01,15.40
2015,06,20,17,02,15.40
2015,06,20,17,03,15.30
2015,06,20,17,04,15.40
2015,06,20,17,05,15.50
2015,06,20,17,06,15.60
2015,06,20,17,07,15.80
2015,06,20,17,08,15.90
2015,06,20,17,09,16.00
2015,06,20,17,10,16.10
2015,06,20,17,11,16.10
2015,06,20,17,12,16.00
2015,06,20,17,13,16.10
2015,06,20,17,14,16.10
2015,06,20,17,15,16.10
2015,06,20,17,16,16.20
2015,06,20,17,17,16.30
2015,06,20,17,18,16.40
2015,06,20,17,19,16.40
2015,06,20,17,20,16.50
2015,06,20,17,21,16.60